#timestamp,LO_Frequency,Hit,StdDev 
1585216815.4,286046994.7,N
1585216835.2,286046990.7,Y
1585216855.1,286046997.2,P
1585216856.0,286046997.2,P
1585216875.8,286047000.3,N
1585216895.7,286047007.4,Y
1585216915.5,286047002.9,P
1585216935.3,286047000.0,N
1585216955.2,286046998.3,N
1585216975.9,286046994.1,N
1585216995.7,286046988.6,Y
1585217015.6,286046992.9,P
1585217035.4,286046995.0,N
1585217055.3,286046991.0,P
1585217075.1,286046989.6,Y
1585217076.0,286046989.6,P
1585217095.8,286046994.0,N
1585217115.7,286046996.2,N
1585217135.5,286046995.5,N
1585217155.3,286046998.6,N
1585217175.2,286046996.0,N
1585217195.0,286046994.2,N
1585217195.9,286046994.2,N
1585217215.8,286046991.7,Y
1585217235.6,286046997.5,P
1585217255.4,286046997.5,N
1585217275.3,286046997.2,N
1585217295.1,286046992.2,Y
1585217315.9,286046996.1,P
1585217335.7,286046995.2,P
1585217355.5,286046994.8,P
1585217375.4,286046993.7,Y
1585217395.2,286046994.3,P
1585217415.0,286046995.9,P
1585217415.9,286046995.9,P
1585217435.8,286046992.9,Y
1585217455.6,286046995.5,P
1585217475.5,286046995.9,P
1585217495.3,286046993.4,P
1585217515.1,286046986.3,Y
1585217535.9,286046997.3,P
1585217555.7,286046998.1,N
1585217575.6,286046998.2,N
1585217595.4,286046997.1,N
1585217615.2,286046995.6,Y
1585217635.1,286047000.6,P
1585217636.0,286047000.6,N
1585217655.8,286046997.8,N
1585217675.6,286046993.9,Y
1585217695.5,286046994.7,P
1585217715.3,286046992.9,P
1585217735.2,286046988.5,P
1585217755.9,286046989.6,N
1585217775.7,286046984.2,Y
1585217795.6,286046989.5,P
1585217815.4,286046987.9,P
1585217835.2,286046986.9,P
1585217855.1,286046987.5,Y
1585217856.0,286046987.5,P
1585217875.8,286046994.9,P
1585217895.7,286046995.2,N
1585217915.5,286046996.4,N
1585217935.3,286046993.5,N
1585217955.2,286046993.9,N
1585217975.0,286046994.3,N
1585217975.9,286046994.3,N
1585217995.8,286046991.9,N
1585218015.6,286046993.8,N
1585218035.4,286046996.1,N
1585218055.3,286046989.2,Y
1585218075.1,286046993.2,P
1585218095.8,286046991.9,P
1585218115.7,286046996.4,P
1585218135.5,286046994.0,Y
1585218155.4,286047000.3,P
1585218175.2,286046996.8,N
1585218195.0,286046997.6,N
1585218195.9,286046997.6,N
1585218215.8,286046997.6,N
1585218235.6,286046995.9,N
1585218255.4,286046994.8,N
1585218275.3,286046994.9,N
1585218295.1,286046995.9,N
1585218315.9,286046997.5,N
1585218335.7,286046997.1,N
1585218355.5,286046999.2,N
1585218375.4,286046999.6,N
1585218395.2,286046990.7,Y
1585218415.1,286046999.5,P
1585218416.0,286046999.5,N
1585218435.8,286046997.8,N
1585218455.6,286047002.3,N
1585218475.5,286046999.0,N
1585218495.3,286046994.7,Y
1585218515.1,286046994.2,P
1585218535.9,286046986.3,P
1585218555.7,286046991.3,N
1585218575.6,286046998.0,N
1585218595.4,286046990.8,N
1585218615.2,286046989.3,N
1585218635.1,286046989.5,N
1585218636.0,286046989.5,N
1585218655.8,286046988.8,N
1585218675.7,286046989.5,N
1585218695.5,286046987.0,Y
1585218715.3,286046997.0,P
1585218735.2,286046999.3,N
1585218755.0,286046995.9,N
1585218755.9,286046995.9,N
1585218775.7,286046995.6,N
1585218795.6,286046994.2,N
1585218815.4,286046994.2,N
1585218835.3,286046991.5,Y
1585218855.1,286046991.1,P
1585218875.8,286046987.1,P
1585218895.7,286046986.6,P
1585218915.5,286046984.3,Y
1585218935.4,286046994.0,P
1585218955.2,286046990.7,P
1585218975.0,286046990.9,P
1585218975.9,286046990.9,Y
1585218995.8,286047002.4,P
1585219015.6,286046998.8,N
1585219035.4,286046998.5,N
1585219055.3,286046999.8,N
1585219075.1,286046999.6,N
1585219095.9,286046997.8,N
1585219115.7,286046999.0,N
1585219135.5,286047000.2,N
1585219155.4,286047005.8,N
1585219175.2,286047005.9,N
1585219195.0,286047004.6,N
1585219195.9,286047004.6,N
1585219215.8,286047007.0,N
1585219235.6,286047005.5,N
1585219255.5,286047002.1,N
1585219275.3,286047002.7,N
1585219295.1,286047001.6,N
1585219315.9,286046999.3,N
1585219335.7,286047000.5,N
1585219355.6,286046997.0,N
1585219375.4,286046994.1,N
1585219395.2,286046992.0,N
1585219415.1,286046991.4,N
1585219416.0,286046991.4,N
1585219435.8,286046992.6,N
1585219455.7,286046991.0,N
1585219475.5,286046990.1,N
1585219495.3,286046992.3,N
1585219515.2,286046993.0,N
1585219535.0,286046992.3,N
1585219535.9,286046992.3,N
1585219555.7,286046994.7,N
1585219575.6,286046994.2,N
1585219595.4,286046995.9,N
1585219615.3,286047002.7,N
1585219635.1,286047004.2,N
1585219636.0,286047004.2,N
1585219655.8,286047001.4,N
1585219675.7,286046999.8,N
1585219695.5,286046995.8,N
1585219715.3,286046998.1,N
1585219735.2,286046999.3,N
1585219755.0,286046998.8,N
1585219755.9,286046998.8,N
1585219775.8,286046994.5,N
1585219795.6,286046995.6,N
1585219815.5,286046992.2,N
1585219835.3,286046988.6,N
1585219855.1,286046991.2,N
1585219875.9,286046991.0,N
1585219895.7,286046992.5,N
1585219915.6,286046991.7,N
1585219935.4,286046990.5,N
1585219955.2,286046988.8,N
1585219975.1,286046990.0,N
1585219976.0,286046990.0,N
1585219995.8,286046987.4,N
1585220015.6,286046987.6,N
1585220035.5,286046988.7,N
1585220055.3,286046987.3,N
1585220075.2,286046986.1,N
1585220095.9,286046981.5,Y
1585220115.7,286046990.1,P
1585220135.6,286046993.0,P
1585220155.4,286046990.2,P
1585220175.3,286046992.3,Y
1585220195.1,286046998.6,P
1585220215.8,286046996.1,N
1585220235.7,286046997.1,N
1585220255.5,286046998.0,N
1585220275.3,286046996.6,N
1585220295.2,286046995.0,N
1585220315.0,286046995.4,N
1585220315.9,286046995.4,N
1585220335.8,286046999.6,N
1585220355.6,286046995.4,N
1585220375.4,286046996.8,N
1585220395.3,286046998.7,N
